Time,TemperatureF,DewpointF,PressureIn,WindDirection,WindDirectionDegrees,WindSpeedMPH,WindSpeedGustMPH,Humidity,HourlyPrecipIn,Conditions,Clouds,dailyrainin,SolarRadiationWatts/m^2,SoftwareType,DateUTC
2013-03-17 00:00:00,26.8,13.2,29.91,NNE,24,0.0,0.0,56,0.00,,OVC100,0.00,0.00,VWS V14.01,2013-03-17 04:00:00,
2013-03-17 00:05:00,26.9,12.9,29.91,NNE,24,0.0,0.0,55,0.00,,CLR,0.00,0.00,VWS V14.01,2013-03-17 04:05:00,
2013-03-17 00:10:00,26.9,13.3,29.91,NNE,24,0.0,0.0,56,0.00,,CLR,0.00,0.00,VWS V14.01,2013-03-17 04:10:00,
2013-03-17 00:15:00,26.8,13.2,29.91,NNE,24,0.0,0.0,56,0.00,,CLR,0.00,0.00,VWS V14.01,2013-03-17 04:15:00,
2013-03-17 00:20:00,26.6,13.0,29.91,NNE,24,0.0,0.0,56,0.00,,CLR,0.00,0.00,VWS V14.01,2013-03-17 04:20:00,
2013-03-17 00:25:00,26.5,12.9,29.91,NNE,24,0.0,0.0,56,0.00,,CLR,0.00,0.00,VWS V14.01,2013-03-17 04:25:00,
2013-03-17 00:30:00,26.5,12.9,29.91,NNE,24,0.0,0.0,56,0.00,,CLR,0.00,0.00,VWS V14.01,2013-03-17 04:30:00,
2013-03-17 00:35:00,26.5,12.9,29.91,NNE,24,0.0,0.0,56,0.00,,CLR,0.00,0.00,VWS V14.01,2013-03-17 04:35:00,
2013-03-17 00:40:00,26.5,12.9,29.91,NNE,24,0.0,0.0,56,0.00,,CLR,0.00,0.00,VWS V14.01,2013-03-17 04:40:00,
2013-03-17 00:45:00,26.4,12.8,29.91,NNE,24,0.0,0.0,56,0.00,,CLR,0.00,0.00,VWS V14.01,2013-03-17 04:45:00,
2013-03-17 00:50:00,26.2,12.7,29.91,NNE,24,0.0,0.0,56,0.00,,CLR,0.00,0.00,VWS V14.01,2013-03-17 04:50:00,
2013-03-17 00:55:00,26.1,13.0,29.91,NNE,24,0.0,0.0,57,0.00,,CLR,0.00,0.00,VWS V14.01,2013-03-17 04:55:00,
2013-03-17 01:00:00,25.9,12.4,29.91,NNE,24,0.0,0.0,56,0.00,,CLR,0.00,0.00,VWS V14.01,2013-03-17 05:00:00,
2013-03-17 01:05:00,25.8,12.7,29.91,NNE,24,0.0,0.0,57,0.00,,CLR,0.00,0.00,VWS V14.01,2013-03-17 05:05:00,
2013-03-17 01:10:00,25.6,12.1,29.92,NNE,24,0.0,0.0,56,0.00,,CLR,0.00,0.00,VWS V14.01,2013-03-17 05:10:00,
2013-03-17 01:15:00,25.5,12.4,29.92,NNE,24,0.0,0.0,57,0.00,,CLR,0.00,0.00,VWS V14.01,2013-03-17 05:15:00,
2013-03-17 01:20:00,25.4,12.3,29.92,NNE,24,0.0,0.0,57,0.00,,CLR,0.00,0.00,VWS V14.01,2013-03-17 05:20:00,
2013-03-17 01:25:00,25.3,12.2,29.92,NNE,24,0.0,0.0,57,0.00,,CLR,0.00,0.00,VWS V14.01,2013-03-17 05:25:00,
2013-03-17 01:30:00,25.2,12.1,29.92,NNE,24,0.0,0.0,57,0.00,,CLR,0.00,0.00,VWS V14.01,2013-03-17 05:30:00,
2013-03-17 01:36:00,25.1,12.0,29.92,NNE,24,0.0,0.0,57,0.00,,CLR,0.00,0.00,VWS V14.01,2013-03-17 05:36:00,
2013-03-17 01:41:00,25.0,12.3,29.92,NNE,24,0.0,0.0,58,0.00,,CLR,0.00,0.00,VWS V14.01,2013-03-17 05:41:00,
2013-03-17 01:46:00,24.9,12.2,29.92,NNE,24,0.0,0.0,58,0.00,,CLR,0.00,0.00,VWS V14.01,2013-03-17 05:46:00,
2013-03-17 01:51:00,24.6,12.3,29.92,NNE,24,0.0,0.0,59,0.00,,CLR,0.00,0.00,VWS V14.01,2013-03-17 05:51:00,
2013-03-17 01:56:00,24.4,12.5,29.92,NNE,24,0.0,0.0,60,0.00,,CLR,0.00,0.00,VWS V14.01,2013-03-17 05:56:00,
2013-03-17 02:01:00,24.2,13.1,29.92,NNE,24,0.0,0.0,62,0.00,,CLR,0.00,0.00,VWS V14.01,2013-03-17 06:01:00,
2013-03-17 02:06:00,24.0,12.9,29.92,NNE,24,0.0,0.0,62,0.00,,CLR,0.00,0.00,VWS V14.01,2013-03-17 06:06:00,
2013-03-17 02:12:00,23.8,12.7,29.92,NNE,24,0.0,0.0,62,0.00,,CLR,0.00,0.00,VWS V14.01,2013-03-17 06:12:00,
2013-03-17 02:17:00,23.7,12.2,29.92,NNE,24,0.0,0.0,61,0.00,,CLR,0.00,0.00,VWS V14.01,2013-03-17 06:17:00,
2013-03-17 02:22:00,23.6,12.1,29.92,NNE,24,0.0,0.0,61,0.00,,CLR,0.00,0.00,VWS V14.01,2013-03-17 06:22:00,
2013-03-17 02:26:00,23.5,12.4,29.92,NNE,24,0.0,0.0,62,0.00,,CLR,0.00,0.00,VWS V14.01,2013-03-17 06:26:00,
2013-03-17 02:32:00,23.4,12.3,29.91,NNE,24,0.0,0.0,62,0.00,,CLR,0.00,0.00,VWS V14.01,2013-03-17 06:32:00,
2013-03-17 02:37:00,23.3,12.2,29.92,NNE,24,0.0,0.0,62,0.00,,CLR,0.00,0.00,VWS V14.01,2013-03-17 06:37:00,
2013-03-17 02:42:00,23.2,12.1,29.92,NNE,24,0.0,0.0,62,0.00,,CLR,0.00,0.00,VWS V14.01,2013-03-17 06:42:00,
2013-03-17 02:47:00,23.1,12.0,29.92,NNE,24,0.0,0.0,62,0.00,,CLR,0.00,0.00,VWS V14.01,2013-03-17 06:47:00,
2013-03-17 02:52:00,23.1,12.4,29.92,NNE,24,0.0,0.0,63,0.00,,CLR,0.00,0.00,VWS V14.01,2013-03-17 06:52:00,
2013-03-17 02:57:00,23.0,12.3,29.92,NNE,24,0.0,0.0,63,0.00,,CLR,0.00,0.00,VWS V14.01,2013-03-17 06:57:00,
2013-03-17 03:02:00,22.9,12.2,29.92,NNE,24,0.0,0.0,63,0.00,,CLR,0.00,0.00,VWS V14.01,2013-03-17 07:02:00,
2013-03-17 03:07:00,22.8,12.8,29.93,NNE,24,0.0,0.0,65,0.00,,CLR,0.00,0.00,VWS V14.01,2013-03-17 07:07:00,
2013-03-17 03:12:00,22.7,12.7,29.92,NNE,24,0.0,0.0,65,0.00,,CLR,0.00,0.00,VWS V14.01,2013-03-17 07:12:00,
2013-03-17 03:17:00,22.6,13.3,29.92,NNE,24,0.0,0.0,67,0.00,,CLR,0.00,0.00,VWS V14.01,2013-03-17 07:17:00,
2013-03-17 03:22:00,22.5,13.2,29.92,NNE,24,0.0,0.0,67,0.00,,CLR,0.00,0.00,VWS V14.01,2013-03-17 07:22:00,
2013-03-17 03:27:00,22.4,13.1,29.92,NNE,24,0.0,0.0,67,0.00,,CLR,0.00,0.00,VWS V14.01,2013-03-17 07:27:00,
2013-03-17 03:32:00,22.2,12.9,29.92,NNE,24,0.0,0.0,67,0.00,,CLR,0.00,0.00,VWS V14.01,2013-03-17 07:32:00,
2013-03-17 03:37:00,22.2,12.9,29.93,NNE,24,0.0,0.0,67,0.00,,CLR,0.00,0.00,VWS V14.01,2013-03-17 07:37:00,
2013-03-17 03:42:00,22.1,12.8,29.93,NNE,24,0.0,0.0,67,0.00,,CLR,0.00,0.00,VWS V14.01,2013-03-17 07:42:00,
2013-03-17 03:47:00,22.0,13.1,29.93,NNE,24,0.0,0.0,68,0.00,,CLR,0.00,0.00,VWS V14.01,2013-03-17 07:47:00,
2013-03-17 03:52:00,22.0,13.4,29.93,NNE,24,0.0,0.0,69,0.00,,CLR,0.00,0.00,VWS V14.01,2013-03-17 07:52:00,
2013-03-17 03:57:00,21.9,13.3,29.93,NNE,24,0.0,0.0,69,0.00,,CLR,0.00,0.00,VWS V14.01,2013-03-17 07:57:00,
2013-03-17 04:02:00,21.9,13.3,29.93,NNE,24,0.0,0.0,69,0.00,,CLR,0.00,0.00,VWS V14.01,2013-03-17 08:02:00,
2013-03-17 04:07:00,21.8,13.5,29.94,NNE,24,0.0,0.0,70,0.00,,CLR,0.00,0.00,VWS V14.01,2013-03-17 08:07:00,
2013-03-17 04:12:00,21.9,13.6,29.94,NNE,24,0.0,0.0,70,0.00,,CLR,0.00,0.00,VWS V14.01,2013-03-17 08:12:00,
2013-03-17 04:17:00,21.7,13.4,29.94,NNE,24,0.0,0.0,70,0.00,,CLR,0.00,0.00,VWS V14.01,2013-03-17 08:17:00,
2013-03-17 04:22:00,21.6,13.3,29.95,NNE,24,0.0,0.0,70,0.00,,CLR,0.00,0.00,VWS V14.01,2013-03-17 08:22:00,
2013-03-17 04:27:00,21.5,13.2,29.95,NNE,24,0.0,0.0,70,0.00,,CLR,0.00,0.00,VWS V14.01,2013-03-17 08:27:00,
2013-03-17 04:32:00,21.4,13.5,29.94,NNE,24,0.0,0.0,71,0.00,,CLR,0.00,0.00,VWS V14.01,2013-03-17 08:32:00,
2013-03-17 04:38:00,21.2,13.3,29.94,NNE,24,0.0,0.0,71,0.00,,CLR,0.00,0.00,VWS V14.01,2013-03-17 08:38:00,
2013-03-17 04:43:00,21.0,13.1,29.94,NNE,24,0.0,0.0,71,0.00,,CLR,0.00,0.00,VWS V14.01,2013-03-17 08:43:00,
2013-03-17 04:48:00,20.8,13.2,29.94,NNE,24,0.0,0.0,72,0.00,,CLR,0.00,0.00,VWS V14.01,2013-03-17 08:48:00,
2013-03-17 04:53:00,20.6,13.0,29.95,NNE,24,0.0,0.0,72,0.00,,CLR,0.00,0.00,VWS V14.01,2013-03-17 08:53:00,
2013-03-17 04:58:00,20.4,12.8,29.95,NNE,24,0.0,0.0,72,0.00,,CLR,0.00,0.00,VWS V14.01,2013-03-17 08:58:00,
2013-03-17 05:03:00,20.3,12.7,29.95,NNE,24,0.0,0.0,72,0.00,,CLR,0.00,0.00,VWS V14.01,2013-03-17 09:03:00,
2013-03-17 05:08:00,20.2,12.9,29.95,NNE,24,0.0,0.0,73,0.00,,CLR,0.00,0.00,VWS V14.01,2013-03-17 09:08:00,
2013-03-17 05:13:00,20.0,12.8,29.96,NNE,24,0.0,0.0,73,0.00,,CLR,0.00,0.00,VWS V14.01,2013-03-17 09:13:00,
2013-03-17 05:18:00,19.9,13.0,29.96,NNE,24,0.0,0.0,74,0.00,,CLR,0.00,0.00,VWS V14.01,2013-03-17 09:18:00,
2013-03-17 05:23:00,19.8,12.9,29.96,NNE,24,0.0,0.0,74,0.00,,CLR,0.00,0.00,VWS V14.01,2013-03-17 09:23:00,
2013-03-17 05:28:00,19.8,12.9,29.96,NNE,24,0.0,0.0,74,0.00,,CLR,0.00,0.00,VWS V14.01,2013-03-17 09:28:00,
2013-03-17 05:33:00,19.7,12.8,29.96,NNE,24,0.0,0.0,74,0.00,,CLR,0.00,0.00,VWS V14.01,2013-03-17 09:33:00,
2013-03-17 05:38:00,19.7,13.1,29.96,NNE,24,0.0,0.0,75,0.00,,CLR,0.00,0.00,VWS V14.01,2013-03-17 09:38:00,
2013-03-17 05:43:00,19.7,13.1,29.96,NNE,24,0.0,0.0,75,0.00,,CLR,0.00,0.00,VWS V14.01,2013-03-17 09:43:00,
2013-03-17 05:48:00,19.7,13.1,29.96,NNE,24,0.0,0.0,75,0.00,,CLR,0.00,0.00,VWS V14.01,2013-03-17 09:48:00,
2013-03-17 05:53:00,19.7,13.4,29.96,NNE,24,0.0,0.0,76,0.00,,CLR,0.00,0.00,VWS V14.01,2013-03-17 09:53:00,
2013-03-17 05:58:00,19.7,13.1,29.96,NNE,24,0.0,0.0,75,0.00,,CLR,0.00,0.00,VWS V14.01,2013-03-17 09:58:00,
2013-03-17 06:03:00,19.7,12.8,29.96,NNE,24,0.0,0.0,74,0.00,,FEW044,0.00,0.00,VWS V14.01,2013-03-17 10:03:00,
2013-03-17 06:08:00,19.8,12.6,29.96,NNE,24,0.0,0.0,73,0.00,,FEW044,0.00,0.00,VWS V14.01,2013-03-17 10:08:00,
2013-03-17 06:13:00,19.8,12.6,29.97,NNE,24,0.0,0.0,73,0.00,,FEW044,0.00,0.00,VWS V14.01,2013-03-17 10:13:00,
2013-03-17 06:18:00,19.7,12.5,29.97,NNE,24,0.0,0.0,73,0.00,,FEW044,0.00,0.00,VWS V14.01,2013-03-17 10:18:00,
2013-03-17 06:23:00,19.7,12.5,29.97,NNE,24,0.0,0.0,73,0.00,,FEW044,0.00,0.00,VWS V14.01,2013-03-17 10:23:00,
2013-03-17 06:28:00,19.6,12.7,29.97,NNE,24,0.0,0.0,74,0.00,,FEW044,0.00,0.00,VWS V14.01,2013-03-17 10:28:00,
2013-03-17 06:33:00,19.4,12.5,29.97,NNE,24,0.0,0.0,74,0.00,,FEW044,0.00,0.00,VWS V14.01,2013-03-17 10:33:00,
2013-03-17 06:38:00,19.2,12.6,29.97,NNE,24,0.0,0.0,75,0.00,,FEW044,0.00,0.00,VWS V14.01,2013-03-17 10:38:00,
2013-03-17 06:43:00,19.1,12.8,29.97,NNE,24,0.0,0.0,76,0.00,,FEW044,0.00,0.00,VWS V14.01,2013-03-17 10:43:00,
2013-03-17 06:48:00,19.0,12.4,29.97,NNE,24,0.0,0.0,75,0.00,,FEW044,0.00,0.00,VWS V14.01,2013-03-17 10:48:00,
2013-03-17 06:53:00,18.9,12.6,29.97,NNE,24,0.0,0.0,76,0.00,,FEW044,0.00,0.00,VWS V14.01,2013-03-17 10:53:00,
2013-03-17 06:58:00,18.9,12.6,29.98,NNE,24,0.0,0.0,76,0.00,,FEW044,0.00,5.00,VWS V14.01,2013-03-17 10:58:00,
2013-03-17 07:03:00,18.8,12.5,29.99,NNE,24,0.0,0.0,76,0.00,,CLR,0.00,9.00,VWS V14.01,2013-03-17 11:03:00,
2013-03-17 07:08:00,18.7,12.4,30.00,NNE,24,0.0,0.0,76,0.00,,CLR,0.00,12.00,VWS V14.01,2013-03-17 11:08:00,
2013-03-17 07:13:00,18.6,12.9,30.00,NNE,24,0.0,0.0,78,0.00,,CLR,0.00,16.00,VWS V14.01,2013-03-17 11:13:00,
2013-03-17 07:19:00,18.7,13.0,30.00,NNE,24,0.0,0.0,78,0.00,,CLR,0.00,19.00,VWS V14.01,2013-03-17 11:19:00,
2013-03-17 07:24:00,18.7,13.3,30.01,NNE,24,0.0,0.0,79,0.00,,CLR,0.00,21.00,VWS V14.01,2013-03-17 11:24:00,
2013-03-17 07:29:00,18.8,13.4,30.01,NNE,24,0.0,0.0,79,0.00,,CLR,0.00,25.00,VWS V14.01,2013-03-17 11:29:00,
2013-03-17 07:34:00,19.0,13.9,30.02,NNE,24,0.0,0.0,80,0.00,,CLR,0.00,32.00,VWS V14.01,2013-03-17 11:34:00,
2013-03-17 07:39:00,19.4,14.0,30.02,NNE,24,0.0,0.0,79,0.00,,CLR,0.00,35.00,VWS V14.01,2013-03-17 11:39:00,
2013-03-17 07:44:00,19.8,14.1,30.02,NNE,24,0.0,0.0,78,0.00,,CLR,0.00,42.00,VWS V14.01,2013-03-17 11:44:00,
2013-03-17 07:49:00,20.6,14.6,30.02,NNE,24,0.0,0.0,77,0.00,,CLR,0.00,56.00,VWS V14.01,2013-03-17 11:49:00,
2013-03-17 07:54:00,21.3,14.9,30.03,NW,306,0.0,1.0,76,0.00,,CLR,0.00,97.00,VWS V14.01,2013-03-17 11:54:00,
2013-03-17 07:59:00,22.0,15.3,30.03,NW,306,0.0,1.0,75,0.00,,CLR,0.00,144.00,VWS V14.01,2013-03-17 11:59:00,
2013-03-17 08:04:00,22.8,15.1,30.04,NNE,15,0.0,2.0,72,0.00,,CLR,0.00,148.00,VWS V14.01,2013-03-17 12:04:00,
2013-03-17 08:09:00,23.4,15.1,30.04,NNW,329,0.0,3.0,70,0.00,,CLR,0.00,197.00,VWS V14.01,2013-03-17 12:09:00,
2013-03-17 08:14:00,24.1,15.8,30.05,WSW,246,2.0,2.0,70,0.00,,CLR,0.00,139.00,VWS V14.01,2013-03-17 12:14:00,
2013-03-17 08:19:00,24.7,15.3,30.05,NW,316,0.0,3.0,67,0.00,,CLR,0.00,116.00,VWS V14.01,2013-03-17 12:19:00,
2013-03-17 08:24:00,25.2,15.1,30.05,NNW,344,2.0,7.0,65,0.00,,CLR,0.00,128.00,VWS V14.01,2013-03-17 12:24:00,
2013-03-17 08:29:00,25.4,14.6,30.05,NNW,328,0.0,7.0,63,0.00,,CLR,0.00,158.00,VWS V14.01,2013-03-17 12:29:00,
2013-03-17 08:34:00,25.7,14.5,30.05,WNW,300,0.0,7.0,62,0.00,,CLR,0.00,179.00,VWS V14.01,2013-03-17 12:34:00,
2013-03-17 08:39:00,26.1,14.1,30.05,WNW,298,0.0,7.0,60,0.00,,CLR,0.00,114.00,VWS V14.01,2013-03-17 12:39:00,
2013-03-17 08:44:00,26.6,14.2,30.06,NNW,328,0.0,4.0,59,0.00,,CLR,0.00,239.00,VWS V14.01,2013-03-17 12:44:00,
2013-03-17 08:49:00,27.0,13.4,30.06,WNW,301,1.0,9.0,56,0.00,,CLR,0.00,186.00,VWS V14.01,2013-03-17 12:49:00,
2013-03-17 08:54:00,27.4,13.4,30.06,NNW,327,0.0,2.0,55,0.00,,CLR,0.00,330.00,VWS V14.01,2013-03-17 12:54:00,
2013-03-17 08:59:00,27.9,12.6,30.05,NW,312,0.0,5.0,52,0.00,,CLR,0.00,374.00,VWS V14.01,2013-03-17 12:59:00,
2013-03-17 09:04:00,28.1,13.2,30.05,NNW,328,0.0,2.0,53,0.00,,CLR,0.00,297.00,VWS V14.01,2013-03-17 13:04:00,
2013-03-17 09:09:00,28.4,12.1,30.04,NW,315,0.0,2.0,50,0.00,,CLR,0.00,385.00,VWS V14.01,2013-03-17 13:09:00,
2013-03-17 09:14:00,29.0,12.7,30.05,West,263,0.0,9.0,50,0.00,,CLR,0.00,454.00,VWS V14.01,2013-03-17 13:14:00,
2013-03-17 09:19:00,29.4,12.1,30.04,North,5,0.0,9.0,48,0.00,,CLR,0.00,304.00,VWS V14.01,2013-03-17 13:19:00,
2013-03-17 09:24:00,29.6,12.3,30.04,NNW,331,0.0,3.0,48,0.00,,CLR,0.00,343.00,VWS V14.01,2013-03-17 13:24:00,
2013-03-17 09:29:00,29.8,12.5,30.04,NW,326,0.0,6.0,48,0.00,,CLR,0.00,248.00,VWS V14.01,2013-03-17 13:29:00,
2013-03-17 09:34:00,30.1,12.3,30.04,NNW,334,0.0,3.0,47,0.00,,CLR,0.00,438.00,VWS V14.01,2013-03-17 13:34:00,
2013-03-17 09:39:00,30.5,12.7,30.04,NNW,334,0.0,4.0,47,0.00,,CLR,0.00,269.00,VWS V14.01,2013-03-17 13:39:00,
2013-03-17 09:44:00,30.8,13.0,30.04,NNW,342,5.0,5.0,47,0.00,,CLR,0.00,234.00,VWS V14.01,2013-03-17 13:44:00,
2013-03-17 09:49:00,31.0,13.6,30.04,WSW,254,4.0,19.0,48,0.00,,CLR,0.00,364.00,VWS V14.01,2013-03-17 13:49:00,
2013-03-17 09:54:00,31.1,13.2,30.04,North,11,0.0,13.0,47,0.00,,CLR,0.00,355.00,VWS V14.01,2013-03-17 13:54:00,
2013-03-17 09:59:00,31.5,13.6,30.04,WNW,282,3.0,13.0,47,0.00,,CLR,0.00,417.00,VWS V14.01,2013-03-17 13:59:00,
2013-03-17 10:04:00,31.8,13.4,30.04,NW,313,2.0,7.0,46,0.00,,CLR,0.00,445.00,VWS V14.01,2013-03-17 14:04:00,
2013-03-17 10:09:00,31.9,13.5,30.05,West,275,4.0,14.0,46,0.00,,CLR,0.00,454.00,VWS V14.01,2013-03-17 14:09:00,
2013-03-17 10:14:00,32.2,13.8,30.05,NW,312,3.0,6.0,46,0.00,,CLR,0.00,640.00,VWS V14.01,2013-03-17 14:14:00,
2013-03-17 10:19:00,32.1,13.2,30.05,NW,324,0.0,6.0,45,0.00,,CLR,0.00,649.00,VWS V14.01,2013-03-17 14:19:00,
2013-03-17 10:24:00,32.7,14.2,30.05,WSW,252,3.0,5.0,46,0.00,,CLR,0.00,664.00,VWS V14.01,2013-03-17 14:24:00,
2013-03-17 10:29:00,33.0,14.0,30.05,West,270,3.0,5.0,45,0.00,,CLR,0.00,677.00,VWS V14.01,2013-03-17 14:29:00,
2013-03-17 10:34:00,33.4,14.4,30.05,NW,315,0.0,9.0,45,0.00,,CLR,0.00,689.00,VWS V14.01,2013-03-17 14:34:00,
2013-03-17 10:39:00,33.7,14.6,30.05,ENE,57,2.0,10.0,45,0.00,,CLR,0.00,701.00,VWS V14.01,2013-03-17 14:39:00,
2013-03-17 10:44:00,33.6,14.0,30.06,NW,326,0.0,10.0,44,0.00,,CLR,0.00,712.00,VWS V14.01,2013-03-17 14:44:00,
2013-03-17 10:49:00,33.7,14.1,30.06,West,281,0.0,10.0,44,0.00,,CLR,0.00,724.00,VWS V14.01,2013-03-17 14:49:00,
2013-03-17 10:54:00,34.0,14.4,30.06,WNW,286,0.0,7.0,44,0.00,,CLR,0.00,735.00,VWS V14.01,2013-03-17 14:54:00,
2013-03-17 10:59:00,34.4,14.2,30.06,WNW,290,0.0,7.0,43,0.00,,CLR,0.00,761.00,VWS V14.01,2013-03-17 14:59:00,
2013-03-17 11:04:00,34.4,14.8,30.06,NW,317,4.0,13.0,44,0.00,,BKN048,0.00,761.00,VWS V14.01,2013-03-17 15:04:00,
2013-03-17 11:09:00,34.4,13.7,30.06,WNW,289,0.0,13.0,42,0.00,,BKN048,0.00,798.00,VWS V14.01,2013-03-17 15:09:00,
2013-03-17 11:14:00,34.8,14.1,30.07,North,360,3.0,9.0,42,0.00,,BKN048,0.00,812.00,VWS V14.01,2013-03-17 15:14:00,
2013-03-17 11:19:00,35.4,14.1,30.06,WNW,288,3.0,9.0,41,0.00,,BKN048,0.00,837.00,VWS V14.01,2013-03-17 15:19:00,
2013-03-17 11:24:00,35.4,14.1,30.07,NW,321,0.0,9.0,41,0.00,,BKN048,0.00,879.00,VWS V14.01,2013-03-17 15:24:00,
2013-03-17 11:30:00,35.9,14.5,30.07,WSW,254,2.0,9.0,41,0.00,,BKN048,0.00,909.00,VWS V14.01,2013-03-17 15:30:00,
2013-03-17 11:35:00,36.1,14.1,30.07,NW,308,1.0,10.0,40,0.00,,BKN048,0.00,844.00,VWS V14.01,2013-03-17 15:35:00,
2013-03-17 11:40:00,36.2,14.8,30.07,NW,323,0.0,10.0,41,0.00,,BKN048,0.00,909.00,VWS V14.01,2013-03-17 15:40:00,
2013-03-17 11:45:00,36.6,15.7,30.07,North,355,1.0,11.0,42,0.00,,BKN048,0.00,886.00,VWS V14.01,2013-03-17 15:45:00,
2013-03-17 11:50:00,36.5,14.5,30.07,WNW,287,0.0,11.0,40,0.00,,BKN048,0.00,928.00,VWS V14.01,2013-03-17 15:50:00,
2013-03-17 11:55:00,36.6,15.1,30.07,North,360,1.0,7.0,41,0.00,,BKN048,0.00,1025.00,VWS V14.01,2013-03-17 15:55:00,
2013-03-17 12:00:00,35.3,14.0,30.07,NW,319,0.0,5.0,41,0.00,,,0.00,257.00,VWS V14.01,2013-03-17 16:00:00,
2013-03-17 12:05:00,34.5,13.2,30.07,WNW,302,0.0,8.0,41,0.00,,,0.00,944.00,VWS V14.01,2013-03-17 16:05:00,
2013-03-17 12:10:00,34.6,12.2,30.06,WSW,246,1.0,8.0,39,0.00,,,0.00,986.00,VWS V14.01,2013-03-17 16:10:00,
2013-03-17 12:15:00,35.1,13.8,30.07,WSW,241,0.0,11.0,41,0.00,,,0.00,991.00,VWS V14.01,2013-03-17 16:15:00,
2013-03-17 12:20:00,35.5,11.2,30.07,North,355,6.0,11.0,36,0.00,,,0.00,928.00,VWS V14.01,2013-03-17 16:20:00,
2013-03-17 12:25:00,35.1,12.1,30.07,NW,312,1.0,13.0,38,0.00,,,0.00,962.00,VWS V14.01,2013-03-17 16:25:00,
2013-03-17 12:30:00,34.9,11.9,30.07,NNW,337,0.0,13.0,38,0.00,,,0.00,886.00,VWS V14.01,2013-03-17 16:30:00,
2013-03-17 12:35:00,35.9,13.4,30.07,WSW,248,7.0,11.0,39,0.00,,FEW055,0.00,867.00,VWS V14.01,2013-03-17 16:35:00,
2013-03-17 12:40:00,36.5,10.8,30.07,NE,51,2.0,14.0,34,0.00,,FEW055,0.00,861.00,VWS V14.01,2013-03-17 16:40:00,
2013-03-17 12:45:00,37.0,11.9,30.07,North,5,4.0,11.0,35,0.00,,FEW055,0.00,858.00,VWS V14.01,2013-03-17 16:45:00,
2013-03-17 12:50:00,36.9,11.8,30.07,North,9,0.0,11.0,35,0.00,,FEW055,0.00,860.00,VWS V14.01,2013-03-17 16:50:00,
2013-03-17 12:55:00,37.1,10.7,30.07,SW,225,0.0,6.0,33,0.00,,FEW055,0.00,875.00,VWS V14.01,2013-03-17 16:55:00,
2013-03-17 13:00:00,37.3,12.8,30.06,NE,42,0.0,4.0,36,0.00,,,0.00,886.00,VWS V14.01,2013-03-17 17:00:00,
2013-03-17 13:05:00,38.0,12.8,30.07,WSW,244,1.0,9.0,35,0.00,,,0.00,875.00,VWS V14.01,2013-03-17 17:05:00,
2013-03-17 13:10:00,38.1,12.2,30.07,NW,306,6.0,7.0,34,0.00,,,0.00,928.00,VWS V14.01,2013-03-17 17:10:00,
2013-03-17 13:15:00,38.3,13.1,30.07,WNW,287,0.0,15.0,35,0.00,,BKN070,0.00,868.00,VWS V14.01,2013-03-17 17:15:00,
2013-03-17 13:20:00,37.8,12.6,30.07,West,267,3.0,5.0,35,0.00,,BKN070,0.00,879.00,VWS V14.01,2013-03-17 17:20:00,
2013-03-17 13:25:00,37.5,11.7,30.07,NW,319,1.0,13.0,34,0.00,,BKN070,0.00,819.00,VWS V14.01,2013-03-17 17:25:00,
2013-03-17 13:30:00,37.6,13.1,30.06,ENE,70,0.0,0.0,36,0.00,,BKN070,0.00,925.00,VWS V14.01,2013-03-17 17:30:00,
2013-03-17 13:35:00,37.5,13.0,30.07,North,355,4.0,14.0,36,0.00,,BKN070,0.00,844.00,VWS V14.01,2013-03-17 17:35:00,
2013-03-17 13:40:00,38.0,12.8,30.07,West,267,5.0,5.0,35,0.00,,BKN070,0.00,870.00,VWS V14.01,2013-03-17 17:40:00,
2013-03-17 13:45:00,38.2,11.6,30.07,NNW,332,3.0,14.0,33,0.00,,BKN070,0.00,856.00,VWS V14.01,2013-03-17 17:45:00,
2013-03-17 13:50:00,37.8,11.3,30.07,West,266,2.0,2.0,33,0.00,,BKN070,0.00,837.00,VWS V14.01,2013-03-17 17:50:00,
2013-03-17 13:55:00,37.4,10.9,30.07,NNW,329,0.0,12.0,33,0.00,,BKN070,0.00,837.00,VWS V14.01,2013-03-17 17:55:00,
2013-03-17 14:00:00,37.6,11.1,30.07,WNW,286,2.0,3.0,33,0.00,,,0.00,817.00,VWS V14.01,2013-03-17 18:00:00,
2013-03-17 14:05:00,37.9,10.7,30.07,SW,215,2.0,11.0,32,0.00,,,0.00,744.00,VWS V14.01,2013-03-17 18:05:00,
2013-03-17 14:10:00,37.7,9.1,30.07,NW,323,0.0,6.0,30,0.00,,,0.00,773.00,VWS V14.01,2013-03-17 18:10:00,
2013-03-17 14:15:00,37.9,10.7,30.06,WNW,290,0.0,7.0,32,0.00,,,0.00,735.00,VWS V14.01,2013-03-17 18:15:00,
2013-03-17 14:20:00,38.4,8.9,30.07,NNW,342,2.0,3.0,29,0.00,,,0.00,759.00,VWS V14.01,2013-03-17 18:20:00,
2013-03-17 14:25:00,38.6,9.1,30.07,SW,234,2.0,13.0,29,0.00,,,0.00,747.00,VWS V14.01,2013-03-17 18:25:00,
2013-03-17 14:30:00,38.5,10.5,30.07,North,355,9.0,13.0,31,0.00,,,0.00,696.00,VWS V14.01,2013-03-17 18:30:00,
2013-03-17 14:35:00,38.0,8.6,30.07,West,273,5.0,13.0,29,0.00,,BKN070,0.00,684.00,VWS V14.01,2013-03-17 18:35:00,
2013-03-17 14:40:00,37.8,9.2,30.07,WNW,302,0.0,4.0,30,0.00,,BKN070,0.00,703.00,VWS V14.01,2013-03-17 18:40:00,
2013-03-17 14:45:00,37.9,10.0,30.08,East,88,0.0,13.0,31,0.00,,BKN070,0.00,693.00,VWS V14.01,2013-03-17 18:45:00,
2013-03-17 14:50:00,37.4,9.5,30.07,WNW,290,0.0,1.0,31,0.00,,BKN070,0.00,705.00,VWS V14.01,2013-03-17 18:50:00,
2013-03-17 14:55:00,37.7,9.1,30.08,North,9,2.0,5.0,30,0.00,,BKN070,0.00,650.00,VWS V14.01,2013-03-17 18:55:00,
2013-03-17 15:00:00,37.6,9.0,30.08,WSW,240,5.0,7.0,30,0.00,,BKN070,0.00,689.00,VWS V14.01,2013-03-17 19:00:00,
2013-03-17 15:05:00,37.3,8.0,30.08,NNW,348,5.0,14.0,29,0.00,,CLR,0.00,664.00,VWS V14.01,2013-03-17 19:05:00,
2013-03-17 15:10:00,37.5,8.9,30.08,SW,232,5.0,5.0,30,0.00,,CLR,0.00,598.00,VWS V14.01,2013-03-17 19:10:00,
2013-03-17 15:15:00,37.6,9.7,30.08,NNW,331,10.0,11.0,31,0.00,,CLR,0.00,642.00,VWS V14.01,2013-03-17 19:15:00,
2013-03-17 15:20:00,37.6,9.0,30.09,North,355,1.0,4.0,30,0.00,,CLR,0.00,617.00,VWS V14.01,2013-03-17 19:20:00,
2013-03-17 15:25:00,37.6,9.0,30.09,WSW,257,3.0,9.0,30,0.00,,CLR,0.00,573.00,VWS V14.01,2013-03-17 19:25:00,
2013-03-17 15:30:00,37.3,8.7,30.09,NE,56,3.0,10.0,30,0.00,,CLR,0.00,591.00,VWS V14.01,2013-03-17 19:30:00,
2013-03-17 15:35:00,37.0,10.6,30.09,NW,317,2.0,12.0,33,0.00,,CLR,0.00,573.00,VWS V14.01,2013-03-17 19:35:00,
2013-03-17 15:40:00,36.8,8.3,30.09,NW,323,11.0,13.0,30,0.00,,CLR,0.00,605.00,VWS V14.01,2013-03-17 19:40:00,
2013-03-17 15:45:00,36.6,8.8,30.09,NW,321,2.0,15.0,31,0.00,,CLR,0.00,517.00,VWS V14.01,2013-03-17 19:45:00,
2013-03-17 15:50:00,36.8,9.7,30.10,WNW,282,3.0,4.0,32,0.00,,CLR,0.00,591.00,VWS V14.01,2013-03-17 19:50:00,
2013-03-17 15:55:00,36.9,9.1,30.10,NNW,335,1.0,11.0,31,0.00,,CLR,0.00,543.00,VWS V14.01,2013-03-17 19:55:00,
2013-03-17 16:01:00,36.5,8.8,30.10,NW,324,1.0,5.0,31,0.00,,CLR,0.00,513.00,VWS V14.01,2013-03-17 20:01:00,
2013-03-17 16:06:00,36.4,9.4,30.10,NE,39,5.0,13.0,32,0.00,,CLR,0.00,483.00,VWS V14.01,2013-03-17 20:06:00,
2013-03-17 16:11:00,36.5,9.5,30.10,SW,236,5.0,5.0,32,0.00,,CLR,0.00,439.00,VWS V14.01,2013-03-17 20:11:00,
2013-03-17 16:16:00,36.6,9.6,30.11,NW,321,5.0,6.0,32,0.00,,CLR,0.00,378.00,VWS V14.01,2013-03-17 20:16:00,
2013-03-17 16:21:00,36.2,9.2,30.11,West,267,1.0,6.0,32,0.00,,CLR,0.00,357.00,VWS V14.01,2013-03-17 20:21:00,
2013-03-17 16:26:00,36.0,9.0,30.11,WSW,250,0.0,7.0,32,0.00,,CLR,0.00,322.00,VWS V14.01,2013-03-17 20:26:00,
2013-03-17 16:31:00,35.9,9.6,30.12,WSW,246,3.0,9.0,33,0.00,,CLR,0.00,332.00,VWS V14.01,2013-03-17 20:31:00,
2013-03-17 16:37:00,35.6,10.0,30.12,NW,323,0.0,10.0,34,0.00,,CLR,0.00,258.00,VWS V14.01,2013-03-17 20:37:00,
2013-03-17 16:42:00,35.0,8.8,30.12,WNW,303,1.0,3.0,33,0.00,,CLR,0.00,345.00,VWS V14.01,2013-03-17 20:42:00,
2013-03-17 16:47:00,34.8,9.3,30.12,NNW,338,3.0,10.0,34,0.00,,CLR,0.00,220.00,VWS V14.01,2013-03-17 20:47:00,
2013-03-17 16:52:00,34.6,9.1,30.12,South,184,4.0,13.0,34,0.00,,CLR,0.00,225.00,VWS V14.01,2013-03-17 20:52:00,
2013-03-17 16:57:00,34.4,9.6,30.12,WNW,296,2.0,15.0,35,0.00,,CLR,0.00,185.00,VWS V14.01,2013-03-17 20:57:00,
2013-03-17 17:02:00,33.7,8.3,30.12,WNW,298,0.0,16.0,34,0.00,,CLR,0.00,237.00,VWS V14.01,2013-03-17 21:02:00,
2013-03-17 17:07:00,33.8,9.1,30.12,West,261,0.0,16.0,35,0.00,,CLR,0.00,118.00,VWS V14.01,2013-03-17 21:07:00,
2013-03-17 17:12:00,34.0,8.6,30.13,NW,305,0.0,9.0,34,0.00,,CLR,0.00,204.00,VWS V14.01,2013-03-17 21:12:00,
2013-03-17 17:17:00,34.2,9.4,30.13,North,355,0.0,9.0,35,0.00,,CLR,0.00,218.00,VWS V14.01,2013-03-17 21:17:00,
2013-03-17 17:22:00,34.2,8.8,30.13,NW,321,5.0,5.0,34,0.00,,CLR,0.00,63.00,VWS V14.01,2013-03-17 21:22:00,
2013-03-17 17:28:00,33.8,9.1,30.14,WNW,295,2.0,11.0,35,0.00,,CLR,0.00,118.00,VWS V14.01,2013-03-17 21:28:00,
2013-03-17 17:33:00,33.2,7.9,30.14,NNW,340,3.0,15.0,34,0.00,,CLR,0.00,98.00,VWS V14.01,2013-03-17 21:33:00,
2013-03-17 17:38:00,32.8,8.2,30.14,NW,319,2.0,15.0,35,0.00,,CLR,0.00,69.00,VWS V14.01,2013-03-17 21:38:00,
2013-03-17 17:43:00,32.4,8.4,30.14,NW,321,0.0,14.0,36,0.00,,CLR,0.00,70.00,VWS V14.01,2013-03-17 21:43:00,
2013-03-17 17:48:00,32.3,8.4,30.14,SSW,212,0.0,14.0,36,0.00,,CLR,0.00,49.00,VWS V14.01,2013-03-17 21:48:00,
2013-03-17 17:53:00,32.1,8.8,30.15,NNW,338,0.0,6.0,37,0.00,,CLR,0.00,98.00,VWS V14.01,2013-03-17 21:53:00,
2013-03-17 17:58:00,31.9,8.0,30.15,WNW,302,1.0,6.0,36,0.00,,CLR,0.00,30.00,VWS V14.01,2013-03-17 21:58:00,
2013-03-17 18:03:00,31.8,9.1,30.15,West,259,2.0,9.0,38,0.00,,CLR,0.00,30.00,VWS V14.01,2013-03-17 22:03:00,
2013-03-17 18:08:00,31.6,8.3,30.16,NW,323,3.0,10.0,37,0.00,,CLR,0.00,25.00,VWS V14.01,2013-03-17 22:08:00,
2013-03-17 18:13:00,31.4,8.7,30.16,NW,321,0.0,3.0,38,0.00,,CLR,0.00,23.00,VWS V14.01,2013-03-17 22:13:00,
2013-03-17 18:18:00,31.1,9.1,30.16,NW,319,0.0,10.0,39,0.00,,CLR,0.00,19.00,VWS V14.01,2013-03-17 22:18:00,
2013-03-17 18:23:00,30.8,8.2,30.16,WNW,282,0.0,3.0,38,0.00,,CLR,0.00,19.00,VWS V14.01,2013-03-17 22:23:00,
2013-03-17 18:28:00,30.6,8.6,30.16,NW,325,0.0,6.0,39,0.00,,CLR,0.00,19.00,VWS V14.01,2013-03-17 22:28:00,
2013-03-17 18:33:00,30.5,7.9,30.17,NNW,329,0.0,5.0,38,0.00,,CLR,0.00,14.00,VWS V14.01,2013-03-17 22:33:00,
2013-03-17 18:38:00,30.3,8.3,30.17,NNW,334,0.0,5.0,39,0.00,,CLR,0.00,12.00,VWS V14.01,2013-03-17 22:38:00,
2013-03-17 18:43:00,30.1,8.1,30.17,West,275,3.0,11.0,39,0.00,,CLR,0.00,11.00,VWS V14.01,2013-03-17 22:43:00,
2013-03-17 18:48:00,29.9,8.5,30.18,WNW,297,0.0,11.0,40,0.00,,CLR,0.00,7.00,VWS V14.01,2013-03-17 22:48:00,
2013-03-17 18:53:00,29.7,7.8,30.18,WNW,291,0.0,3.0,39,0.00,,CLR,0.00,0.00,VWS V14.01,2013-03-17 22:53:00,
2013-03-17 18:58:00,29.5,7.6,30.19,SW,233,0.0,3.0,39,0.00,,CLR,0.00,0.00,VWS V14.01,2013-03-17 22:58:00,
2013-03-17 19:03:00,29.3,8.0,30.19,NW,313,0.0,1.0,40,0.00,,CLR,0.00,0.00,VWS V14.01,2013-03-17 23:03:00,
2013-03-17 19:08:00,29.1,8.4,30.19,NW,309,0.0,2.0,41,0.00,,CLR,0.00,0.00,VWS V14.01,2013-03-17 23:08:00,
2013-03-17 19:13:00,28.8,8.6,30.19,NNW,332,0.0,2.0,42,0.00,,CLR,0.00,0.00,VWS V14.01,2013-03-17 23:13:00,
2013-03-17 19:18:00,28.7,8.0,30.20,WNW,298,0.0,6.0,41,0.00,,CLR,0.00,0.00,VWS V14.01,2013-03-17 23:18:00,
2013-03-17 19:23:00,28.7,8.5,30.20,NW,307,0.0,3.0,42,0.00,,CLR,0.00,0.00,VWS V14.01,2013-03-17 23:23:00,
2013-03-17 19:28:00,28.5,8.3,30.20,NW,307,0.0,3.0,42,0.00,,CLR,0.00,0.00,VWS V14.01,2013-03-17 23:28:00,
2013-03-17 19:33:00,28.3,8.2,30.21,NNW,339,0.0,5.0,42,0.00,,CLR,0.00,0.00,VWS V14.01,2013-03-17 23:33:00,